| time (UTC) | temp F | wind direction | speed knots | gust knots | rain 1hr in | rain 24hr in | rain mn in | humidity % | barometer mb |
| 20260505073008 | 62 | 133 | 0.0 | 4.3 | 0.00 | 0.00 | 0.00 | 48 | 1009.6 |
| 20260505071504 | 61 | 121 | 0.9 | 6.1 | 0.00 | 0.00 | 0.00 | 48 | 1009.7 |
| 20260505070004 | 61 | 76 | 0.9 | 6.1 | 0.00 | 0.00 | 0.00 | 47 | 1009.7 |
| 20260505064503 | 62 | 225 | 0.9 | 5.2 | 0.00 | 0.00 | 0.00 | 45 | 1009.6 |
| 20260505063004 | 62 | 141 | 0.0 | 7.8 | 0.00 | 0.00 | 0.00 | 44 | 1009.8 |
| 20260505061604 | 62 | 132 | 0.0 | 7.0 | 0.00 | 0.00 | 0.00 | 45 | 1009.8 |
| 20260505060058 | 62 | 72 | 1.7 | 5.2 | 0.00 | 0.00 | 0.00 | 44 | 1009.9 |
| 20260505054556 | 60 | 99 | 0.0 | 3.5 | 0.00 | 0.00 | 0.00 | 47 | 1009.9 |
| 20260505053050 | 59 | 94 | 0.0 | 3.5 | 0.00 | 0.00 | 0.00 | 49 | 1009.9 |
| 20260505051546 | 57 | 145 | 0.0 | 4.3 | 0.00 | 0.00 | 0.00 | 50 | 1010.1 |
| 20260505050120 | 57 | 138 | 0.0 | 4.3 | 0.00 | 0.00 | 0.00 | 50 | 1010.2 |
| 20260505041552 | 55 | 131 | 0.0 | 3.5 | 0.00 | 0.00 | 0.00 | 53 | 1010.4 |
| 20260505040052 | 55 | 137 | 0.0 | 1.7 | 0.00 | 0.00 | 0.00 | 52 | 1010.5 |
| 20260505034539 | 55 | 160 | 0.0 | 6.1 | 0.00 | 0.00 | 0.00 | 52 | 1010.4 |
| 20260505033044 | 55 | 92 | 0.0 | 0.9 | 0.00 | 0.00 | 0.00 | 52 | 1010.6 |
| 20260505031544 | 55 | 114 | 0.0 | 2.6 | 0.00 | 0.00 | 0.00 | 53 | 1010.8 |
| 20260505030039 | 55 | 150 | 0.0 | 0.9 | 0.00 | 0.00 | 0.00 | 53 | 1010.9 |
| 20260505024532 | 56 | 95 | 0.0 | 1.7 | 0.00 | 0.00 | 0.00 | 51 | 1011.0 |
| 20260505023039 | 57 | 86 | 0.0 | 1.7 | 0.00 | 0.00 | 0.00 | 48 | 1011.1 |
| 20260505021529 | 56 | 153 | 0.0 | 3.5 | 0.00 | 0.00 | 0.00 | 49 | 1011.3 |
| 20260505020029 | 57 | 108 | 0.0 | 0.9 | 0.00 | 0.00 | 0.00 | 49 | 1011.4 |
| 20260505014526 | 57 | 108 | 0.0 | 0.9 | 0.00 | 0.00 | 0.00 | 47 | 1011.4 |
| 20260505013025 | 57 | 109 | 0.0 | 1.7 | 0.00 | 0.00 | 0.00 | 47 | 1011.6 |
| 20260505011529 | 56 | 91 | 0.0 | 0.0 | 0.00 | 0.00 | 0.00 | 53 | 1011.7 |
| 20260505010023 | 55 | 38 | 0.0 | 0.9 | 0.00 | 0.00 | 0.00 | 56 | 1011.8 |
| 20260505004532 | 56 | 118 | 0.0 | 0.9 | 0.00 | 0.00 | 0.00 | 53 | 1011.9 |
| 20260505003018 | 56 | 106 | 0.0 | 0.9 | 0.00 | 0.00 | 0.00 | 52 | 1012.0 |
| 20260505001516 | 56 | 106 | 0.0 | 0.0 | 0.00 | 0.00 | 0.00 | 52 | 1012.1 |
| 20260505000026 | 56 | 106 | 0.0 | 0.9 | 0.00 | 0.00 | 0.00 | 52 | 1012.4 |
| 20260504234512 | 56 | 106 | 0.0 | 0.9 | 0.00 | 0.00 | 0.00 | 53 | 1012.4 |
| 20260504233010 | 55 | 106 | 0.0 | 0.0 | 0.00 | 0.00 | 0.00 | 56 | 1012.5 |
| 20260504231508 | 56 | 106 | 0.0 | 0.0 | 0.00 | 0.00 | 0.00 | 56 | 1012.7 |
| 20260504230011 | 56 | 106 | 0.0 | 0.0 | 0.00 | 0.00 | 0.00 | 57 | 1012.9 |
| 20260504224503 | 55 | 106 | 0.0 | 0.0 | 0.00 | 0.00 | 0.00 | 58 | 1013.0 |
| 20260504223100 | 56 | 106 | 0.0 | 0.9 | 0.00 | 0.00 | 0.00 | 58 | 1013.0 |
| 20260504221558 | 57 | 106 | 0.0 | 0.9 | 0.00 | 0.00 | 0.00 | 57 | 1013.2 |
| 20260504220059 | 57 | 106 | 0.0 | 0.9 | 0.00 | 0.00 | 0.00 | 58 | 1013.2 |
| 20260504214554 | 56 | 102 | 0.0 | 0.9 | 0.00 | 0.00 | 0.00 | 60 | 1013.3 |
| 20260504213125 | 57 | 102 | 0.0 | 0.9 | 0.00 | 0.00 | 0.00 | 59 | 1013.3 |
| 20260504211556 | 56 | 99 | 0.0 | 0.9 | 0.00 | 0.00 | 0.00 | 62 | 1013.4 |
| 20260504210053 | 57 | 86 | 0.0 | 0.0 | 0.00 | 0.00 | 0.00 | 60 | 1013.4 |
| 20260504204555 | 57 | 86 | 0.0 | 0.0 | 0.00 | 0.00 | 0.00 | 63 | 1013.4 |
| 20260504203112 | 56 | 86 | 0.0 | 0.0 | 0.00 | 0.00 | 0.00 | 65 | 1013.4 |
| 20260504201551 | 57 | 86 | 0.0 | 0.0 | 0.00 | 0.00 | 0.00 | 67 | 1013.3 |
| 20260504200052 | 57 | 86 | 0.0 | 0.0 | 0.00 | 0.00 | 0.00 | 68 | 1013.3 |
| 20260504194601 | 57 | 86 | 0.0 | 0.0 | 0.00 | 0.00 | 0.00 | 69 | 1013.2 |
| 20260504193058 | 58 | 86 | 0.0 | 0.0 | 0.00 | 0.00 | 0.00 | 69 | 1013.2 |
| 20260504191549 | 58 | 86 | 0.0 | 0.0 | 0.00 | 0.00 | 0.00 | 68 | 1013.1 |
| 20260504190100 | 58 | 86 | 0.0 | 0.0 | 0.00 | 0.00 | 0.00 | 66 | 1013.1 |
| 20260504184556 | 59 | 86 | 0.0 | 0.0 | 0.00 | 0.00 | 0.00 | 65 | 1012.9 |
| 20260504183046 | 60 | 86 | 0.0 | 0.0 | 0.00 | 0.00 | 0.00 | 64 | 1012.7 |
| 20260504181545 | 62 | 86 | 0.0 | 0.0 | 0.00 | 0.00 | 0.00 | 63 | 1012.7 |
| 20260504180047 | 62 | 86 | 0.0 | 0.9 | 0.00 | 0.00 | 0.00 | 62 | 1012.7 |
| 20260504174544 | 63 | 86 | 0.0 | 0.0 | 0.00 | 0.00 | 0.00 | 61 | 1012.6 |
| 20260504173049 | 64 | 86 | 0.0 | 0.9 | 0.00 | 0.00 | 0.00 | 60 | 1012.6 |
| 20260504171542 | 65 | 84 | 0.0 | 0.0 | 0.00 | 0.00 | 0.00 | 58 | 1012.5 |
| 20260504081501 | 63 | 121 | 1.7 | 7.0 | 0.00 | 0.00 | 0.00 | 50 | 1015.4 |